Location: Newark
(45.2862°N, 9.8850°E)
Time: 00:45:30
(UTC+00:00)

N. Korean satellite - Visible Passes

Search period start: 08 December 2019 00:00
Search period end: 18 December 2019 00:00
Orbit: 456 x 506 km, 97.2° (Epoch: 06 December)

Date Brightness Start Highest point End Pass type
(mag) Time Alt. Az. Time Alt. Az. Time Alt. Az.
08 Dec 9.6 04:20:38 10° NE 04:22:58 16° E 04:25:16 10° SE visible
08 Dec 7.2 05:53:15 10° N 05:56:29 33° WNW 05:59:38 10° SW visible
08 Dec 7.0 16:29:51 10° S 16:33:33 68° W 16:37:15 10° NNW visible
09 Dec 6.4 05:27:36 10° N 05:31:08 69° WNW 05:34:36 10° SSW visible
09 Dec 10.2 17:40:50 10° WSW 17:41:53 11° W 17:42:55 10° WNW visible
10 Dec 7.3 05:02:13 10° NNE 05:05:41 54° E 05:09:06 10° S visible
10 Dec 9.5 17:13:21 10° SW 17:16:13 21° W 17:19:06 10° NW visible
11 Dec 8.8 04:37:09 10° NE 04:40:09 25° E 04:43:06 10° SSE visible
11 Dec 7.8 06:10:42 10° NNW 06:13:25 21° WNW 06:16:06 10° WSW visible
11 Dec 8.1 16:47:09 10° S 16:50:40 41° W 16:54:11 10° NNW visible
12 Dec 9.9 04:12:47 10° ENE 04:14:31 13° E 04:16:13 10° ESE visible
12 Dec 6.9 05:44:48 10° N 05:48:08 40° WNW 05:51:25 10° SW visible
12 Dec 6.7 16:21:29 10° SSE 16:25:11 86° WSW 16:28:54 10° NNW visible
13 Dec 6.4 05:19:13 10° NNE 05:22:46 88° W 05:26:12 10° SSW visible
13 Dec 10.0 17:31:31 10° WSW 17:33:26 13° W 17:35:19 10° WNW visible
14 Dec 7.8 04:53:55 10° NNE 04:57:16 41° E 05:00:34 10° S visible
14 Dec 9.1 17:04:41 10° SSW 17:07:48 26° W 17:10:55 10° NW visible
15 Dec 9.2 04:29:00 10° NE 04:31:42 20° E 04:34:20 10° SE visible
15 Dec 7.5 06:02:08 10° NNW 06:05:05 25° WNW 06:07:58 10° SW visible
15 Dec 7.6 16:38:40 10° S 16:42:16 51° W 16:45:52 10° NNW visible
16 Dec 10.1 04:05:30 10° E 04:06:01 10° E 04:06:32 10° E visible
16 Dec 6.6 05:36:20 10° N 05:39:45 51° WNW 05:43:06 10° SSW visible
16 Dec 6.6 16:13:09 10° SSE 16:16:49 75° ENE 16:20:28 10° N visible
17 Dec 6.7 05:10:50 10° NNE 05:14:20 72° ESE 05:17:45 10° S visible
17 Dec 9.8 17:22:34 10° SW 17:24:58 16° W 17:27:21 10° NW visible
